Location: Champs
(48.8539°N, 2.6040°E)
Time: 18:18:32
(UTC+00:00)

Cosmos 2056 Rocket - Pass Details

Date: 01 June 2022
Orbit: 741 x 801 km, 74.0° (Epoch: 01 July)

Event Time Altitude Azimuth Distance (km) Brightness Sun altitude
Exits shadow 01:42:00 12° 163° (SSE) 2,152 5.4 -14.6°
Maximum altitude 01:46:15 34° 102° (ESE) 1,247 4.7 -14.3°
Drops below altitude 10° 01:51:00 10° 39° (NE) 2,340 7.4 -13.9°
Sets 01:53:35 0° 30° (NNE) 3,283 8.8 -13.7°
